contact:dominique.lefevre@mio.osupytheas.fr, maurice.libes@osupytheas.fr, didier.mallarino@osupytheas.fr
Project:EMSO http://www.emso-fr.org/EMSO-France
Depth: 2436.0 m
Title:EMSO Ligure Ouest : Data MII capteur AQUADOPP
Date,Latitude,Longitude,X_East,Y_North,Z_Up,Amplitude_X,Amplitude_Y,Amplitude_Z,Batterie,SoundSpeed,Heading,Pitch,Roll,Pressure,TIS,Speed,Direction
, degrees North, degrees East, m.s-1, m.s-1,m.s-1, 1, 1, 1, Volt, m.s-1, degree, degree, degree, dbar, degree_C, m.s-1, degree
2022-08-11T00:04:03,42.805,6.029,-0.001,0.001,0.016,104.0,104.0,100.0,13.4,1505.2,321.9,-0.8,1.8,2470.937,13.28,0.001,315.0
2022-08-11T00:07:03,42.805,6.029,0.021,-0.031,-0.044,102.0,101.0,101.0,13.4,1505.2,325.0,-0.8,1.8,2470.951,13.28,0.037,145.9
2022-08-11T00:10:03,42.805,6.029,0.026,-0.021,-0.017,103.0,103.0,101.0,13.4,1505.2,324.5,-0.8,1.8,2470.919,13.28,0.033,128.9
2022-08-11T00:13:03,42.805,6.029,0.019,-0.021,-0.028,102.0,102.0,100.0,13.4,1505.2,322.5,-0.7,1.8,2470.949,13.28,0.028,137.9
2022-08-11T00:16:03,42.805,6.029,0.005,-0.022,-0.037,102.0,102.0,101.0,13.3,1505.2,326.7,-0.7,1.8,2470.878,13.28,0.022,167.2
2022-08-11T00:19:03,42.805,6.029,0.013,-0.018,-0.036,101.0,102.0,101.0,13.4,1505.2,321.8,-0.7,1.8,2470.952,13.28,0.022,144.2
2022-08-11T00:22:03,42.805,6.029,0.008,-0.008,-0.03,102.0,103.0,100.0,13.3,1505.2,321.7,-0.8,1.8,2470.908,13.28,0.011,135.0
2022-08-11T00:25:03,42.805,6.029,0.011,-0.006,0.02,103.0,102.0,102.0,13.4,1505.2,320.2,-0.8,1.8,2470.904,13.29,0.012,118.6
2022-08-11T00:28:03,42.805,6.029,0.014,-0.022,-0.007,102.0,103.0,101.0,13.4,1505.2,329.5,-0.8,1.8,2470.913,13.29,0.026,147.5
2022-08-11T00:31:03,42.805,6.029,0.022,-0.006,-0.023,103.0,102.0,101.0,13.4,1505.2,328.3,-0.8,1.8,2470.887,13.29,0.022,105.3
2022-08-11T00:34:03,42.805,6.029,0.018,-0.006,-0.008,102.0,103.0,101.0,13.4,1505.2,326.6,-0.8,1.8,2470.896,13.29,0.018,108.4
2022-08-11T00:37:03,42.805,6.029,-0.008,-0.003,-0.02,103.0,103.0,100.0,13.3,1505.2,323.0,-0.8,1.8,2470.872,13.29,0.008,249.4
2022-08-11T00:40:03,42.805,6.029,0.002,0.0,-0.014,104.0,103.0,101.0,13.4,1505.2,330.9,-0.8,1.8,2470.911,13.29,0.002,90.0
2022-08-11T00:43:03,42.805,6.029,0.013,0.005,-0.033,102.0,103.0,100.0,13.3,1505.2,330.4,-0.8,1.8,2470.919,13.29,0.013,69.0
2022-08-11T00:46:03,42.805,6.029,0.003,-0.015,-0.022,103.0,103.0,100.0,13.4,1505.2,325.1,-0.8,1.8,2470.895,13.29,0.015,168.7
2022-08-11T00:49:03,42.805,6.029,0.011,-0.022,-0.014,102.0,103.0,101.0,13.4,1505.2,331.8,-0.8,1.8,2470.909,13.29,0.024,153.4
2022-08-11T00:52:03,42.805,6.029,0.031,-0.031,-0.024,103.0,101.0,101.0,13.4,1505.2,321.5,-0.8,1.8,2470.884,13.29,0.043,135.0
2022-08-11T00:55:03,42.805,6.029,0.002,-0.009,-0.027,102.0,102.0,101.0,13.3,1505.2,321.7,-0.7,1.8,2470.896,13.29,0.009,167.5
2022-08-11T00:58:03,42.805,6.029,0.017,-0.019,-0.021,102.0,104.0,99.0,13.4,1505.2,323.7,-0.7,1.8,2470.885,13.29,0.025,138.2
2022-08-11T01:04:03,42.805,6.029,0.047,-0.017,-0.03,103.0,103.0,102.0,13.4,1505.2,326.1,-0.8,1.8,2470.936,13.28,0.049,109.9
2022-08-11T01:07:03,42.805,6.029,0.027,0.003,-0.014,102.0,103.0,101.0,13.4,1505.2,334.7,-0.8,1.9,2470.92,13.28,0.027,83.7
2022-08-11T01:10:03,42.805,6.029,0.028,-0.007,-0.004,102.0,102.0,102.0,13.4,1505.2,331.4,-0.8,1.8,2470.902,13.28,0.028,104.0
2022-08-11T01:13:03,42.805,6.029,-0.004,-0.006,-0.019,101.0,103.0,101.0,13.3,1505.2,329.2,-0.8,1.8,2470.923,13.28,0.007,213.7
2022-08-11T01:16:03,42.805,6.029,0.009,-0.005,0.011,103.0,102.0,101.0,13.4,1505.2,331.8,-0.7,1.8,2470.861,13.28,0.01,119.1
2022-08-11T01:19:03,42.805,6.029,0.043,-0.022,-0.016,101.0,103.0,101.0,13.4,1505.2,320.8,-0.8,1.8,2470.892,13.28,0.048,117.1
2022-08-11T01:22:03,42.805,6.029,0.016,0.003,-0.013,102.0,104.0,100.0,13.3,1505.2,327.2,-0.7,1.8,2470.888,13.29,0.016,79.4
2022-08-11T01:25:03,42.805,6.029,0.018,-0.025,-0.025,102.0,102.0,101.0,13.3,1505.2,326.9,-0.7,1.8,2470.897,13.29,0.03,144.2
2022-08-11T01:28:03,42.805,6.029,0.019,-0.024,-0.011,102.0,103.0,101.0,13.4,1505.2,328.9,-0.8,1.8,2470.903,13.29,0.03,141.6
2022-08-11T01:31:03,42.805,6.029,0.027,-0.02,-0.002,103.0,103.0,101.0,13.4,1505.2,333.6,-0.7,1.8,2470.887,13.29,0.033,126.5
2022-08-11T01:34:03,42.805,6.029,0.047,-0.023,-0.009,101.0,103.0,101.0,13.4,1505.2,325.9,-0.7,1.8,2470.859,13.29,0.052,116.1
2022-08-11T01:37:03,42.805,6.029,0.004,-0.019,-0.014,101.0,103.0,101.0,13.3,1505.2,323.8,-0.8,1.8,2470.869,13.29,0.019,168.1
2022-08-11T01:40:03,42.805,6.029,0.023,-0.014,-0.019,104.0,101.0,100.0,13.4,1505.2,333.9,-0.8,1.9,2470.858,13.29,0.026,121.3
2022-08-11T01:43:03,42.805,6.029,0.025,-0.018,-0.016,102.0,102.0,100.0,13.4,1505.2,322.1,-0.7,1.8,2470.87,13.29,0.03,125.8
2022-08-11T01:46:03,42.805,6.029,-0.024,-0.006,-0.016,102.0,101.0,100.0,13.3,1505.2,331.2,-0.7,1.8,2470.86,13.29,0.024,256.0
2022-08-11T01:49:03,42.805,6.029,0.007,-0.017,-0.011,102.0,102.0,101.0,13.4,1505.2,332.6,-0.8,1.8,2470.916,13.29,0.018,157.6
2022-08-11T01:52:03,42.805,6.029,0.016,-0.003,0.0,103.0,101.0,102.0,13.4,1505.2,324.5,-0.7,1.8,2470.867,13.29,0.016,100.6
2022-08-11T01:55:03,42.805,6.029,0.031,-0.03,-0.013,103.0,102.0,101.0,13.4,1505.2,327.6,-0.8,1.8,2470.88,13.29,0.043,134.1
2022-08-11T01:58:03,42.805,6.029,0.018,-0.032,-0.002,102.0,102.0,103.0,13.4,1505.2,328.8,-0.7,1.8,2470.877,13.29,0.036,150.6
2022-08-11T02:04:03,42.805,6.029,0.013,-0.018,-0.052,101.0,102.0,101.0,13.4,1505.2,322.2,-0.8,1.8,2470.913,13.28,0.022,144.2
2022-08-11T02:07:03,42.805,6.029,0.013,-0.016,-0.005,103.0,101.0,101.0,13.4,1505.2,322.1,-0.7,1.8,2470.956,13.28,0.02,140.9
2022-08-11T02:10:03,42.805,6.029,0.025,-0.038,-0.002,103.0,100.0,101.0,13.3,1505.2,324.0,-0.8,1.9,2470.882,13.28,0.045,146.7
2022-08-11T02:13:03,42.805,6.029,0.004,-0.014,-0.004,102.0,103.0,101.0,13.4,1505.2,327.9,-0.7,1.8,2470.98,13.28,0.014,164.1
2022-08-11T02:16:03,42.805,6.029,0.018,-0.009,0.009,102.0,102.0,101.0,13.4,1505.2,329.9,-0.7,1.8,2470.943,13.28,0.02,116.6
2022-08-11T02:19:03,42.805,6.029,0.017,-0.022,-0.022,103.0,103.0,100.0,13.4,1505.2,328.5,-0.7,1.8,2470.931,13.28,0.027,142.3
2022-08-11T02:22:03,42.805,6.029,0.015,-0.02,-0.044,102.0,102.0,101.0,13.4,1505.2,332.2,-0.8,1.8,2470.888,13.29,0.025,143.1
2022-08-11T02:25:03,42.805,6.029,0.02,-0.011,-0.033,103.0,102.0,100.0,13.4,1505.2,320.6,-0.7,1.8,2470.877,13.29,0.022,118.8
2022-08-11T02:28:03,42.805,6.029,0.013,-0.02,-0.03,102.0,102.0,101.0,13.4,1505.2,327.2,-0.8,1.8,2470.913,13.29,0.023,147.0
2022-08-11T02:31:03,42.805,6.029,-0.009,-0.025,-0.027,102.0,101.0,101.0,13.4,1505.2,328.9,-0.8,1.8,2470.902,13.29,0.026,199.8
2022-08-11T02:34:03,42.805,6.029,0.019,-0.027,-0.024,102.0,102.0,100.0,13.4,1505.2,328.2,-0.7,1.8,2470.863,13.29,0.033,144.9
2022-08-11T02:37:03,42.805,6.029,0.0,-0.013,-0.012,101.0,103.0,101.0,13.4,1505.2,321.2,-0.7,1.8,2470.9,13.29,0.013,180.0
2022-08-11T02:40:03,42.805,6.029,0.012,-0.018,-0.039,103.0,103.0,101.0,13.3,1505.2,326.0,-0.8,1.8,2470.921,13.29,0.021,146.3
2022-08-11T02:43:03,42.805,6.029,0.014,-0.017,-0.014,102.0,101.0,101.0,13.3,1505.2,325.1,-0.8,1.8,2470.895,13.29,0.022,140.5
2022-08-11T02:46:03,42.805,6.029,0.002,-0.016,-0.013,101.0,101.0,102.0,13.4,1505.2,327.3,-0.7,1.8,2470.916,13.29,0.016,172.9
2022-08-11T02:49:03,42.805,6.029,0.011,-0.011,-0.002,101.0,102.0,101.0,13.4,1505.2,330.6,-0.8,1.8,2470.923,13.29,0.015,135.0
2022-08-11T02:52:03,42.805,6.029,0.019,0.01,-0.023,102.0,102.0,101.0,13.4,1505.2,319.1,-0.7,1.8,2470.923,13.29,0.021,62.2
2022-08-11T02:55:03,42.805,6.029,0.013,-0.031,-0.019,103.0,100.0,100.0,13.3,1505.2,322.2,-0.8,1.8,2470.911,13.29,0.033,157.3
2022-08-11T02:58:03,42.805,6.029,0.003,-0.017,0.018,102.0,102.0,100.0,13.3,1505.2,329.5,-0.8,1.8,2470.942,13.29,0.017,170.0
2022-08-11T03:04:03,42.805,6.029,0.023,-0.048,-0.04,102.0,102.0,100.0,13.4,1505.2,327.6,-0.7,1.8,2470.943,13.28,0.053,154.4
2022-08-11T03:07:03,42.805,6.029,0.05,-0.012,-0.009,100.0,101.0,102.0,13.4,1505.2,327.9,-0.7,1.8,2470.949,13.28,0.051,103.5
2022-08-11T03:10:03,42.805,6.029,0.016,0.0,-0.029,101.0,101.0,102.0,13.4,1505.2,323.0,-0.8,1.8,2470.934,13.28,0.016,90.0
2022-08-11T03:13:03,42.805,6.029,0.038,-0.013,-0.006,101.0,103.0,100.0,13.3,1505.2,323.2,-0.8,1.8,2470.969,13.28,0.04,108.9
2022-08-11T03:16:03,42.805,6.029,0.039,-0.013,-0.034,101.0,102.0,101.0,13.4,1505.2,319.6,-0.8,1.8,2470.939,13.28,0.041,108.4
2022-08-11T03:19:03,42.805,6.029,0.021,0.001,-0.019,102.0,103.0,100.0,13.4,1505.2,321.1,-0.8,1.8,2470.942,13.29,0.021,87.3
2022-08-11T03:22:03,42.805,6.029,0.013,-0.011,-0.013,102.0,101.0,102.0,13.4,1505.2,328.8,-0.8,1.8,2470.891,13.29,0.017,130.2
2022-08-11T03:25:03,42.805,6.029,0.017,-0.009,-0.031,102.0,101.0,100.0,13.4,1505.2,319.3,-0.8,1.8,2470.936,13.29,0.019,117.9
2022-08-11T03:28:03,42.805,6.029,0.024,-0.01,-0.037,102.0,102.0,101.0,13.4,1505.2,322.4,-0.8,1.8,2470.918,13.29,0.026,112.6
2022-08-11T03:31:03,42.805,6.029,0.02,-0.017,-0.035,102.0,102.0,101.0,13.4,1505.2,330.9,-0.8,1.8,2470.901,13.29,0.026,130.4
2022-08-11T03:34:03,42.805,6.029,-0.003,-0.009,-0.013,101.0,102.0,100.0,13.4,1505.2,324.8,-0.8,1.9,2470.908,13.29,0.009,198.4
2022-08-11T03:37:03,42.805,6.029,0.02,-0.006,-0.002,103.0,101.0,101.0,13.4,1505.2,329.6,-0.7,1.8,2470.944,13.29,0.02,106.7
2022-08-11T03:40:03,42.805,6.029,0.0,0.0,-0.013,103.0,102.0,100.0,13.4,1505.2,321.6,-0.7,1.8,2470.931,13.29,0.0,0.0
2022-08-11T03:43:03,42.805,6.029,0.024,-0.015,-0.034,102.0,103.0,100.0,13.4,1505.2,326.9,-0.8,1.8,2470.942,13.29,0.028,122.0
2022-08-11T03:46:03,42.805,6.029,0.001,-0.004,-0.023,101.0,103.0,100.0,13.4,1505.2,328.3,-0.7,1.8,2470.952,13.29,0.004,166.0
2022-08-11T03:49:03,42.805,6.029,0.012,-0.001,-0.037,103.0,101.0,101.0,13.3,1505.2,328.5,-0.8,1.8,2470.926,13.29,0.012,94.8
2022-08-11T03:52:03,42.805,6.029,0.002,-0.013,-0.034,102.0,101.0,101.0,13.4,1505.2,334.2,-0.7,1.8,2470.949,13.29,0.013,171.3
2022-08-11T03:55:03,42.805,6.029,0.014,-0.009,-0.011,101.0,103.0,101.0,13.4,1505.2,331.7,-0.7,1.8,2470.948,13.29,0.016,122.7
2022-08-11T03:58:03,42.805,6.029,0.012,-0.002,-0.005,102.0,102.0,100.0,13.4,1505.2,325.4,-0.8,1.8,2470.936,13.29,0.012,99.5
2022-08-11T04:04:03,42.805,6.029,0.011,-0.008,-0.017,103.0,102.0,100.0,13.4,1505.2,322.1,-0.8,1.8,2471.001,13.28,0.013,126.0
2022-08-11T04:07:03,42.805,6.029,0.01,-0.012,-0.006,101.0,101.0,100.0,13.4,1505.2,321.8,-0.8,1.8,2470.983,13.28,0.015,140.2
2022-08-11T04:10:03,42.805,6.029,0.024,-0.008,0.022,101.0,102.0,100.0,13.3,1505.2,330.6,-0.7,1.8,2471.001,13.28,0.025,108.4
2022-08-11T04:13:03,42.805,6.029,0.01,-0.012,0.005,102.0,102.0,101.0,13.3,1505.2,332.9,-0.7,1.8,2470.943,13.28,0.015,140.2
2022-08-11T04:16:03,42.805,6.029,0.015,-0.006,0.015,101.0,102.0,101.0,13.4,1505.2,329.7,-0.8,1.8,2470.991,13.28,0.016,111.8
2022-08-11T04:19:03,42.805,6.029,0.018,0.004,0.001,100.0,103.0,102.0,13.4,1505.2,318.5,-0.8,1.8,2470.978,13.29,0.018,77.5
2022-08-11T04:22:03,42.805,6.029,0.024,-0.018,-0.016,102.0,101.0,101.0,13.3,1505.2,325.1,-0.7,1.8,2470.971,13.29,0.03,126.9
2022-08-11T04:25:03,42.805,6.029,0.019,-0.025,-0.047,102.0,102.0,100.0,13.3,1505.2,323.9,-0.8,1.8,2471.001,13.29,0.031,142.8
2022-08-11T04:28:03,42.805,6.029,0.017,-0.02,-0.003,101.0,102.0,101.0,13.3,1505.2,326.4,-0.8,1.8,2470.96,13.29,0.026,139.6
2022-08-11T04:31:03,42.805,6.029,0.026,0.006,0.009,102.0,103.0,101.0,13.4,1505.2,328.9,-0.8,1.9,2470.98,13.29,0.026,77.0
2022-08-11T04:34:03,42.805,6.029,0.034,-0.019,-0.033,103.0,101.0,101.0,13.3,1505.2,319.7,-0.7,1.8,2470.984,13.29,0.038,119.2
2022-08-11T04:37:03,42.805,6.029,0.01,0.0,-0.018,100.0,102.0,102.0,13.4,1505.2,323.7,-0.8,1.8,2470.957,13.29,0.01,90.0
2022-08-11T04:40:03,42.805,6.029,0.027,-0.015,-0.028,103.0,103.0,101.0,13.4,1505.2,326.4,-0.7,1.8,2471.032,13.29,0.03,119.1
2022-08-11T04:43:03,42.805,6.029,0.016,-0.03,-0.051,101.0,103.0,101.0,13.4,1505.2,327.6,-0.8,1.8,2470.98,13.29,0.034,151.9
2022-08-11T04:46:03,42.805,6.029,-0.012,-0.016,-0.015,102.0,102.0,101.0,13.4,1505.2,333.1,-0.7,1.9,2471.012,13.29,0.02,216.9
2022-08-11T04:49:03,42.805,6.029,0.016,-0.01,0.002,102.0,102.0,101.0,13.4,1505.2,334.1,-0.8,1.8,2471.004,13.29,0.018,122.0
2022-08-11T04:52:03,42.805,6.029,-0.002,-0.021,-0.014,103.0,102.0,101.0,13.3,1505.2,329.0,-0.8,1.8,2470.982,13.29,0.021,185.4
2022-08-11T04:55:03,42.805,6.029,0.029,-0.02,-0.025,102.0,101.0,101.0,13.4,1505.2,326.4,-0.7,1.8,2470.992,13.29,0.035,124.6
2022-08-11T04:58:03,42.805,6.029,0.01,0.0,-0.006,101.0,101.0,101.0,13.4,1505.2,324.5,-0.7,1.8,2471.014,13.29,0.01,90.0
2022-08-11T05:04:03,42.805,6.029,0.029,-0.012,-0.026,102.0,103.0,100.0,13.4,1505.2,324.5,-0.8,1.8,2471.09,13.28,0.031,112.5
2022-08-11T05:07:03,42.805,6.029,0.013,-0.005,0.015,103.0,103.0,100.0,13.3,1505.2,330.0,-0.7,1.8,2471.013,13.28,0.013,111.0
2022-08-11T05:10:03,42.805,6.029,0.03,-0.016,0.005,102.0,102.0,99.0,13.4,1505.2,327.2,-0.8,1.8,2471.051,13.28,0.034,118.1
2022-08-11T05:13:03,42.805,6.029,0.021,-0.023,-0.029,102.0,102.0,101.0,13.4,1505.2,330.8,-0.8,1.8,2471.032,13.28,0.031,137.6
2022-08-11T05:16:03,42.805,6.029,0.021,0.011,-0.004,104.0,100.0,101.0,13.4,1505.2,320.3,-0.8,1.8,2470.959,13.28,0.023,62.4
2022-08-11T05:19:03,42.805,6.029,0.027,0.002,0.017,102.0,102.0,100.0,13.4,1505.2,321.5,-0.8,1.8,2471.01,13.28,0.027,85.8
2022-08-11T05:22:03,42.805,6.029,0.029,-0.013,-0.018,102.0,102.0,100.0,13.4,1505.2,325.0,-0.8,1.8,2471.011,13.29,0.031,114.1
2022-08-11T05:25:03,42.805,6.029,0.033,0.004,-0.018,101.0,101.0,101.0,13.4,1505.2,326.9,-0.8,1.8,2470.969,13.29,0.033,83.1
2022-08-11T05:28:03,42.805,6.029,0.006,-0.016,-0.026,103.0,101.0,101.0,13.3,1505.2,319.2,-0.8,1.8,2470.974,13.29,0.017,159.4
2022-08-11T05:31:03,42.805,6.029,0.03,-0.017,-0.024,100.0,103.0,101.0,13.4,1505.2,326.7,-0.8,1.8,2471.032,13.29,0.034,119.5
2022-08-11T05:34:03,42.805,6.029,-0.009,-0.006,-0.033,102.0,103.0,101.0,13.4,1505.2,328.5,-0.8,1.8,2471.01,13.29,0.01,236.3
2022-08-11T05:37:03,42.805,6.029,0.02,-0.001,-0.014,104.0,101.0,100.0,13.4,1505.2,320.7,-0.8,1.8,2470.985,13.29,0.02,92.9
2022-08-11T05:40:03,42.805,6.029,0.021,-0.019,-0.028,103.0,102.0,100.0,13.4,1505.2,322.4,-0.8,1.8,2471.001,13.29,0.028,132.1
2022-08-11T05:43:03,42.805,6.029,0.029,-0.009,-0.041,103.0,102.0,101.0,13.3,1505.2,328.9,-0.7,1.8,2471.006,13.29,0.03,107.2
2022-08-11T05:46:03,42.805,6.029,0.014,-0.005,-0.008,102.0,102.0,101.0,13.3,1505.2,328.3,-0.8,1.8,2470.972,13.29,0.014,109.6
2022-08-11T05:49:03,42.805,6.029,0.03,-0.037,-0.018,101.0,102.0,101.0,13.3,1505.2,328.1,-0.8,1.8,2471.007,13.29,0.047,141.0
2022-08-11T05:52:03,42.805,6.029,0.023,-0.034,-0.003,103.0,101.0,101.0,13.3,1505.2,331.2,-0.8,1.8,2471.02,13.29,0.041,145.9
2022-08-11T05:55:03,42.805,6.029,0.035,0.012,0.015,101.0,102.0,101.0,13.4,1505.2,326.4,-0.8,1.8,2471.032,13.29,0.037,71.1
2022-08-11T05:58:03,42.805,6.029,0.024,-0.029,-0.011,102.0,102.0,101.0,13.4,1505.2,331.4,-0.8,1.8,2470.996,13.29,0.037,140.4
2022-08-11T06:04:03,42.805,6.029,0.033,-0.001,0.001,102.0,102.0,100.0,13.4,1505.2,321.5,-0.7,1.8,2471.088,13.28,0.033,91.7
2022-08-11T06:07:03,42.805,6.029,0.01,0.003,-0.058,101.0,103.0,100.0,13.4,1505.2,322.3,-0.7,1.8,2471.054,13.28,0.01,73.3
2022-08-11T06:10:03,42.805,6.029,0.012,0.015,0.0,103.0,102.0,100.0,13.4,1505.2,320.6,-0.8,1.8,2471.01,13.28,0.019,38.7
2022-08-11T06:13:03,42.805,6.029,0.02,-0.03,-0.057,101.0,102.0,102.0,13.4,1505.2,327.0,-0.8,1.9,2471.009,13.28,0.036,146.3
2022-08-11T06:16:03,42.805,6.029,0.009,-0.002,-0.045,103.0,101.0,101.0,13.3,1505.2,326.9,-0.8,1.8,2471.006,13.28,0.009,102.5
2022-08-11T06:19:03,42.805,6.029,0.013,-0.011,-0.004,102.0,102.0,100.0,13.3,1505.2,326.1,-0.8,1.8,2471.05,13.28,0.017,130.2
2022-08-11T06:22:03,42.805,6.029,0.018,-0.007,-0.006,102.0,103.0,101.0,13.3,1505.2,321.4,-0.7,1.8,2471.019,13.28,0.019,111.2
2022-08-11T06:25:03,42.805,6.029,0.026,0.0,-0.006,102.0,102.0,100.0,13.3,1505.2,322.1,-0.8,1.8,2471.009,13.28,0.026,90.0
2022-08-11T06:28:03,42.805,6.029,0.023,-0.028,-0.032,102.0,102.0,101.0,13.3,1505.2,325.4,-0.8,1.8,2471.045,13.29,0.036,140.6
2022-08-11T06:31:03,42.805,6.029,0.037,-0.011,-0.011,101.0,102.0,101.0,13.3,1505.2,323.7,-0.8,1.8,2471.016,13.28,0.038,106.6
2022-08-11T06:34:03,42.805,6.029,0.032,-0.039,-0.016,102.0,102.0,100.0,13.4,1505.2,329.6,-0.7,1.8,2471.035,13.28,0.05,140.6
2022-08-11T06:37:03,42.805,6.029,0.011,-0.012,-0.003,102.0,103.0,100.0,13.3,1505.2,325.4,-0.8,1.8,2471.028,13.29,0.016,137.5
2022-08-11T06:40:03,42.805,6.029,0.012,-0.026,-0.008,102.0,101.0,101.0,13.3,1505.2,329.3,-0.7,1.8,2471.016,13.29,0.028,155.2
2022-08-11T06:43:03,42.805,6.029,0.024,0.008,-0.01,102.0,102.0,101.0,13.4,1505.2,325.0,-0.7,1.8,2470.999,13.29,0.025,71.6
2022-08-11T06:46:03,42.805,6.029,-0.001,0.011,-0.025,103.0,101.0,101.0,13.4,1505.2,328.0,-0.7,1.8,2471.007,13.28,0.011,354.8
2022-08-11T06:49:03,42.805,6.029,0.018,-0.04,-0.036,102.0,102.0,101.0,13.4,1505.2,333.9,-0.7,1.8,2471.013,13.29,0.043,155.8
2022-08-11T06:52:03,42.805,6.029,0.036,-0.007,-0.021,102.0,102.0,100.0,13.3,1505.2,323.0,-0.7,1.8,2471.011,13.29,0.036,101.0
2022-08-11T06:55:03,42.805,6.029,0.019,-0.003,-0.009,102.0,102.0,101.0,13.3,1505.2,321.4,-0.7,1.8,2471.041,13.29,0.019,99.0
2022-08-11T06:58:03,42.805,6.029,0.04,0.0,0.01,103.0,101.0,100.0,13.3,1505.2,328.9,-0.7,1.8,2471.005,13.29,0.04,90.0
2022-08-11T07:04:03,42.805,6.029,0.018,-0.008,-0.03,102.0,102.0,100.0,13.4,1505.2,322.5,-0.8,1.8,2471.076,13.28,0.019,114.0
2022-08-11T07:07:03,42.805,6.029,0.019,0.003,0.005,102.0,103.0,101.0,13.4,1505.2,322.2,-0.8,1.8,2471.073,13.28,0.019,81.0
2022-08-11T07:10:03,42.805,6.029,0.023,-0.02,-0.035,102.0,102.0,100.0,13.3,1505.2,328.2,-0.7,1.8,2471.025,13.28,0.03,131.0
2022-08-11T07:13:03,42.805,6.029,-0.002,-0.013,-0.044,101.0,103.0,101.0,13.4,1505.2,323.4,-0.7,1.8,2471.022,13.28,0.013,188.7
2022-08-11T07:16:03,42.805,6.029,-0.006,-0.018,-0.047,102.0,102.0,101.0,13.3,1505.2,328.3,-0.8,1.8,2471.041,13.28,0.018,198.4
2022-08-11T07:19:03,42.805,6.029,0.027,-0.024,-0.034,104.0,102.0,100.0,13.4,1505.2,321.2,-0.7,1.8,2470.994,13.28,0.036,131.6
2022-08-11T07:22:03,42.805,6.029,0.016,-0.018,-0.003,101.0,102.0,101.0,13.4,1505.2,322.5,-0.7,1.8,2471.011,13.28,0.024,138.4
2022-08-11T07:25:03,42.805,6.029,0.012,-0.006,-0.01,102.0,103.0,101.0,13.3,1505.2,324.4,-0.8,1.8,2471.017,13.28,0.013,116.6
2022-08-11T07:28:03,42.805,6.029,0.053,-0.002,-0.005,102.0,102.0,100.0,13.4,1505.2,318.6,-0.8,1.8,2471.021,13.28,0.053,92.2
2022-08-11T07:31:03,42.805,6.029,0.02,-0.011,-0.025,102.0,101.0,100.0,13.4,1505.2,322.7,-0.8,1.8,2470.987,13.28,0.022,118.8
2022-08-11T07:34:03,42.805,6.029,0.021,-0.015,-0.008,102.0,102.0,101.0,13.4,1505.2,330.3,-0.8,1.8,2471.022,13.28,0.025,125.5
2022-08-11T07:37:03,42.805,6.029,0.024,0.009,0.001,102.0,101.0,102.0,13.4,1505.2,330.1,-0.7,1.8,2471.005,13.29,0.025,69.4
2022-08-11T07:40:03,42.805,6.029,0.018,-0.012,-0.036,102.0,102.0,101.0,13.3,1505.2,329.4,-0.7,1.9,2470.985,13.28,0.021,123.7
2022-08-11T07:43:03,42.805,6.029,0.043,-0.016,-0.037,102.0,103.0,100.0,13.4,1505.2,321.7,-0.8,1.8,2471.018,13.28,0.045,110.4
2022-08-11T07:46:03,42.805,6.029,0.02,-0.016,-0.012,102.0,104.0,100.0,13.3,1505.2,332.6,-0.8,1.8,2470.999,13.29,0.025,128.7
2022-08-11T07:49:03,42.805,6.029,0.019,-0.022,-0.004,103.0,102.0,100.0,13.4,1505.2,333.1,-0.8,1.8,2470.996,13.29,0.029,139.2
2022-08-11T07:52:03,42.805,6.029,0.017,-0.02,-0.003,100.0,103.0,101.0,13.4,1505.2,332.6,-0.8,1.8,2470.982,13.29,0.026,139.6
2022-08-11T07:55:03,42.805,6.029,0.016,-0.015,-0.028,101.0,102.0,101.0,13.4,1505.2,333.1,-0.8,1.8,2470.979,13.29,0.021,133.1
2022-08-11T07:58:03,42.805,6.029,0.027,-0.02,-0.034,100.0,102.0,101.0,13.4,1505.2,331.5,-0.8,1.8,2470.986,13.28,0.033,126.5
2022-08-11T08:04:03,42.805,6.029,0.014,-0.018,-0.041,101.0,102.0,100.0,13.4,1505.2,325.9,-0.8,1.8,2471.026,13.28,0.022,142.1
2022-08-11T08:07:03,42.805,6.029,0.012,0.001,0.008,101.0,103.0,100.0,13.4,1505.2,321.6,-0.8,1.8,2471.011,13.28,0.012,85.2
2022-08-11T08:10:03,42.805,6.029,0.04,0.004,-0.01,101.0,101.0,102.0,13.4,1505.2,332.0,-0.7,1.8,2471.009,13.28,0.04,84.3
2022-08-11T08:13:03,42.805,6.029,0.035,-0.029,-0.032,102.0,103.0,100.0,13.4,1505.2,327.6,-0.8,1.8,2470.992,13.28,0.045,129.6
2022-08-11T08:16:03,42.805,6.029,-0.003,0.0,-0.004,101.0,101.0,101.0,13.4,1505.2,327.2,-0.8,1.9,2471.015,13.28,0.003,270.0
2022-08-11T08:19:03,42.805,6.029,0.001,-0.026,-0.066,101.0,101.0,101.0,13.4,1505.2,326.6,-0.8,1.8,2471.013,13.28,0.026,177.8
2022-08-11T08:22:03,42.805,6.029,0.043,-0.015,0.004,101.0,103.0,101.0,13.3,1505.2,325.4,-0.8,1.8,2470.983,13.28,0.045,109.2
2022-08-11T08:25:03,42.805,6.029,0.025,-0.02,-0.009,102.0,103.0,100.0,13.3,1505.2,323.7,-0.8,1.8,2470.97,13.28,0.032,128.7
2022-08-11T08:28:03,42.805,6.029,0.022,-0.016,-0.013,101.0,102.0,100.0,13.4,1505.2,324.8,-0.8,1.8,2470.962,13.28,0.027,126.0
2022-08-11T08:31:03,42.805,6.029,0.03,-0.008,0.007,102.0,102.0,101.0,13.4,1505.2,324.2,-0.8,1.8,2470.95,13.28,0.031,104.9
2022-08-11T08:34:03,42.805,6.029,0.023,-0.023,-0.005,102.0,102.0,101.0,13.3,1505.2,329.9,-0.7,1.8,2470.991,13.28,0.032,135.0
2022-08-11T08:37:03,42.805,6.029,0.026,-0.03,0.001,102.0,102.0,100.0,13.4,1505.2,329.5,-0.8,1.8,2470.966,13.28,0.039,139.1
2022-08-11T08:40:03,42.805,6.029,0.024,0.0,-0.009,102.0,102.0,101.0,13.3,1505.2,320.7,-0.7,1.8,2470.997,13.28,0.024,90.0
2022-08-11T08:43:03,42.805,6.029,0.02,-0.018,-0.051,102.0,102.0,100.0,13.4,1505.2,328.8,-0.8,1.8,2470.972,13.28,0.026,132.0
2022-08-11T08:46:03,42.805,6.029,0.034,-0.02,-0.027,103.0,102.0,101.0,13.4,1505.2,326.7,-0.8,1.8,2470.928,13.28,0.039,120.5
2022-08-11T08:49:03,42.805,6.029,0.013,-0.009,0.003,103.0,102.0,100.0,13.4,1505.2,332.3,-0.8,1.8,2470.956,13.28,0.015,124.7
2022-08-11T08:52:03,42.805,6.029,0.003,-0.017,-0.022,102.0,102.0,101.0,13.3,1505.2,324.6,-0.8,1.8,2470.983,13.29,0.017,170.0
2022-08-11T08:55:03,42.805,6.029,0.018,-0.007,0.001,102.0,103.0,100.0,13.4,1505.2,328.8,-0.8,1.8,2470.975,13.28,0.019,111.2
2022-08-11T08:58:03,42.805,6.029,0.009,-0.004,-0.007,101.0,102.0,100.0,13.3,1505.2,331.1,-0.8,1.8,2470.923,13.29,0.009,114.0
2022-08-11T09:04:03,42.805,6.029,0.028,-0.006,0.029,103.0,104.0,99.0,13.3,1505.2,326.4,-0.8,1.8,2470.993,13.28,0.028,102.1
2022-08-11T09:07:03,42.805,6.029,0.036,-0.024,0.003,102.0,100.0,100.0,13.4,1505.2,328.6,-0.7,1.8,2470.99,13.28,0.043,123.7
2022-08-11T09:10:03,42.805,6.029,0.032,-0.013,-0.001,102.0,103.0,100.0,13.3,1505.2,324.1,-0.8,1.8,2470.965,13.28,0.034,112.1
2022-08-11T09:13:03,42.805,6.029,0.036,-0.016,-0.016,102.0,100.0,101.0,13.3,1505.2,323.2,-0.8,1.8,2470.958,13.28,0.039,114.0
2022-08-11T09:16:03,42.805,6.029,0.034,-0.026,-0.003,104.0,101.0,100.0,13.3,1505.2,327.0,-0.8,1.8,2470.947,13.28,0.042,127.4
2022-08-11T09:19:03,42.805,6.029,0.026,-0.008,-0.044,102.0,102.0,100.0,13.4,1505.2,319.2,-0.8,1.8,2470.955,13.28,0.027,107.1
2022-08-11T09:22:03,42.805,6.029,0.029,-0.024,0.0,102.0,102.0,100.0,13.3,1505.2,324.7,-0.8,1.9,2470.953,13.28,0.037,129.6
2022-08-11T09:25:03,42.805,6.029,0.015,-0.004,-0.002,103.0,102.0,100.0,13.4,1505.2,329.4,-0.8,1.8,2470.919,13.28,0.015,104.9
2022-08-11T09:28:03,42.805,6.029,0.015,0.0,-0.009,102.0,101.0,100.0,13.3,1505.2,330.0,-0.8,1.8,2470.944,13.28,0.015,90.0
2022-08-11T09:31:03,42.805,6.029,0.026,-0.022,0.0,102.0,102.0,100.0,13.4,1505.2,322.6,-0.7,1.8,2470.911,13.29,0.034,130.2
2022-08-11T09:34:03,42.805,6.029,0.008,-0.007,-0.031,102.0,102.0,101.0,13.4,1505.2,326.9,-0.7,1.8,2470.933,13.29,0.01,131.2
2022-08-11T09:37:03,42.805,6.029,0.0,-0.004,-0.009,102.0,102.0,100.0,13.3,1505.2,321.0,-0.8,1.8,2470.936,13.29,0.004,180.0
2022-08-11T09:40:03,42.805,6.029,0.012,-0.024,-0.025,103.0,102.0,100.0,13.4,1505.2,327.4,-0.8,1.8,2470.945,13.28,0.026,153.4
2022-08-11T09:43:03,42.805,6.029,0.046,-0.012,-0.022,102.0,103.0,100.0,13.4,1505.2,318.0,-0.8,1.8,2470.94,13.29,0.047,104.6
2022-08-11T09:46:03,42.805,6.029,0.045,-0.031,-0.027,103.0,100.0,101.0,13.4,1505.2,319.2,-0.8,1.8,2470.857,13.28,0.054,124.6
2022-08-11T09:49:03,42.805,6.029,0.029,-0.051,-0.054,101.0,102.0,100.0,13.4,1505.2,322.2,-0.8,1.8,2470.908,13.28,0.058,150.4
2022-08-11T09:52:03,42.805,6.029,0.031,-0.042,-0.006,101.0,101.0,101.0,13.4,1505.2,323.4,-0.8,1.8,2470.956,13.28,0.052,143.6
2022-08-11T09:55:03,42.805,6.029,0.033,-0.021,-0.014,102.0,101.0,101.0,13.3,1505.2,322.9,-0.8,1.8,2470.886,13.29,0.039,122.5